Kyiv, Ukraine

12:41 AM EET on December 11, 2019 (GMT +0200)
Zhuliany

Weather History for UKKK - August, 2019

Change the Weather History Date:

Saturday, August 24, 2019

  Actual Average (WUND) Record (WUND)
Temperature  
Mean Temperature 70 °F -  
Max Temperature 80 °F - - (-1)
Min Temperature 61 °F - - (-1)
Cooling Degree Days 6    
Growing Degree Days 20 (Base 50)    
Moisture  
Dew Point 53 °F    
Average Humidity 54    
Maximum Humidity 77    
Minimum Humidity 25    
Precipitation  
Precipitation 0.00 in 0.07 in - ()
Sea Level Pressure  
Sea Level Pressure 30.28 in    
Wind  
Wind Speed 6 mph ()    
Max Wind Speed 11 mph    
Max Gust Speed -    
Visibility 12.0 miles    
Events      
Averages and records for this station are not official NWS values.
T = Trace of Precipitation, MM = Missing Value Source: Averaged Metar Reports

Daily Weather History Graph

Daily Weather History Graph

Search for Another Location

Airport or City:

Astronomy

Aug. 24, 2019 Rise Set
Actual Time 5:59 AM EEST 8:00 PM EEST
Civil Twilight 5:24 AM EEST 8:35 PM EEST
Nautical Twilight 4:40 AM EEST 9:18 PM EEST
Astronomical Twilight 3:51 AM EEST 10:07 PM EEST
Moon No Moon Rise 3:09 PM EEST (8/24)
Length of Visible Light 15h 10m
Length of Day
14h 00m
Last Quarter, 42% of the Moon is Illuminated
Aug 24
Last Quarter
Aug 30
New
Sep 6
First Quarter
Sep 14
Full
Sep 22
Last Quarter

Hourly Weather History & Observations

Time (EEST) Temp. Heat Index Dew Point Humidity Pressure Visibility Wind Dir Wind Speed Gust Speed Precip Events Conditions
12:00 AM 67 °F - 53 °F 52% 30.29 in 12 mi NNE 6.7 mph - -  
12:00 AM 64.4 °F - 55.4 °F 73% 30.30 in - North 6.7 mph - N/A   Clear
12:30 AM 64.4 °F - 55.4 °F 73% 30.30 in - North 6.7 mph - N/A   Clear
1:00 AM 64.4 °F - 53.6 °F 68% 30.30 in - NNE 6.7 mph - N/A   Clear
2:00 AM 62.6 °F - 51.8 °F 68% 30.30 in - NE 4.5 mph - N/A   Clear
2:30 AM 62.6 °F - 51.8 °F 68% 30.30 in - North 4.5 mph - N/A   Clear
3:00 AM 64 °F - 53 °F 58% 30.29 in 12 mi NNE 4.5 mph - -  
3:00 AM 62.6 °F - 51.8 °F 68% 30.30 in - NNE 4.5 mph - N/A   Clear
3:30 AM 60.8 °F - 51.8 °F 72% 30.30 in - NNE 4.5 mph - N/A   Clear
4:00 AM 60.8 °F - 51.8 °F 72% 30.30 in - NNE 4.5 mph - N/A   Clear
4:30 AM 60.8 °F - 51.8 °F 72% 30.30 in - NE 4.5 mph - N/A   Clear
5:00 AM 60.8 °F - 51.8 °F 72% 30.30 in - NE 4.5 mph - N/A   Clear
5:30 AM 60.8 °F - 51.8 °F 72% 30.30 in - NE 4.5 mph - N/A   Clear
6:00 AM 62 °F - 54 °F 67% 30.30 in 12 mi NNE 4.5 mph - -  
6:00 AM 59.0 °F - 51.8 °F 77% 30.30 in - NE 4.5 mph - N/A   Clear
6:30 AM 60.8 °F - 51.8 °F 72% 30.30 in - NNE 4.5 mph - N/A   Clear
7:00 AM 62.6 °F - 53.6 °F 72% 30.30 in - NNE 6.7 mph - N/A   Clear
7:30 AM 62.6 °F - 53.6 °F 72% 30.30 in - NNE 4.5 mph - N/A   Clear
8:00 AM 64.4 °F - 53.6 °F 68% 30.30 in - NNE 4.5 mph - N/A   Clear
8:30 AM 66.2 °F - 53.6 °F 64% 30.30 in - NNE 6.7 mph - N/A   Clear
9:00 AM 66 °F - 53 °F 53% 30.30 in 12 mi NNE 4.5 mph - -  
9:00 AM 68.0 °F - 53.6 °F 60% 30.30 in - North 4.5 mph - N/A   Clear
9:30 AM 69.8 °F - 53.6 °F 56% 30.30 in - North 8.9 mph - N/A   Clear
10:00 AM 71.6 °F - 53.6 °F 53% 30.30 in - North 8.9 mph - N/A   Clear
10:30 AM 73.4 °F - 53.6 °F 50% 30.30 in - NNE 8.9 mph - N/A   Clear
11:00 AM 73.4 °F - 53.6 °F 50% 30.30 in - NNE 11.2 mph - N/A   Clear
11:30 AM 75.2 °F - 53.6 °F 47% 30.30 in - NNE 11.2 mph - N/A   Clear
12:00 PM 74 °F - 54 °F 40% 30.29 in 12 mi NE 6.7 mph - -  
12:30 PM 77.0 °F - 55.4 °F 47% 30.30 in - North 8.9 mph - N/A   Clear
1:00 PM 77.0 °F - 55.4 °F 47% 30.30 in - NNE 8.9 mph - N/A   Clear
1:30 PM 77.0 °F - 55.4 °F 47% 30.27 in - NE 8.9 mph - N/A   Clear
2:00 PM 78.8 °F - 55.4 °F 44% 30.27 in - North 6.7 mph - N/A   Clear
2:30 PM 78.8 °F - 55.4 °F 44% 30.27 in - NNE 8.9 mph - N/A   Clear
3:00 PM 79 °F - 55 °F 32% 30.25 in 12 mi North 6.7 mph - -  
3:00 PM 80.6 °F 80.8 °F 57.2 °F 45% 30.27 in - North 6.7 mph - N/A   Clear
3:30 PM 80.6 °F 80.5 °F 55.4 °F 42% 30.27 in - NNE 6.7 mph - N/A   Clear
4:00 PM 80.6 °F 80.5 °F 55.4 °F 42% 30.27 in - North 8.9 mph - N/A   Clear
4:30 PM 80.6 °F 80.5 °F 55.4 °F 42% 30.27 in - North 8.9 mph - N/A   Clear
5:00 PM 80.6 °F 80.3 °F 53.6 °F 39% 30.27 in - North 8.9 mph - N/A   Clear
5:30 PM 80.6 °F 80.3 °F 53.6 °F 39% 30.27 in - North 8.9 mph - N/A   Clear
6:00 PM 79 °F - 52 °F 29% 30.24 in 12 mi NE 6.7 mph - -  
6:00 PM 78.8 °F - 53.6 °F 42% 30.24 in - North 8.9 mph - N/A   Clear
6:30 PM 78.8 °F - 53.6 °F 42% 30.24 in - North 8.9 mph - N/A   Clear
7:00 PM 77.0 °F - 51.8 °F 41% 30.27 in - North 8.9 mph - N/A   Clear
7:30 PM 75.2 °F - 51.8 °F 44% 30.27 in - North 8.9 mph - N/A   Clear
8:00 PM 71.6 °F - 50.0 °F 46% 30.27 in - North 6.7 mph - N/A   Clear
8:30 PM 71.6 °F - 50.0 °F 46% 30.27 in - NNE 6.7 mph - N/A   Clear
9:00 PM 73 °F - 45 °F 25% 30.26 in 12 mi NNE 4.5 mph - -  
9:00 PM 69.8 °F - 48.2 °F 46% 30.27 in - NNE 8.9 mph - N/A   Clear
9:30 PM 69.8 °F - 48.2 °F 46% 30.27 in - NNE 8.9 mph - N/A   Clear
10:00 PM 68.0 °F - 48.2 °F 49% 30.27 in - NNE 6.7 mph - N/A   Clear
10:30 PM 66.2 °F - 50.0 °F 56% 30.27 in - NNE 8.9 mph - N/A   Clear
11:30 PM 66.2 °F - 48.2 °F 52% 30.27 in - NNE 6.7 mph - N/A   Clear